EHI
0 0 0 0 0 0 0 0 0 0 0 0 0 0 0 0 0 0 0 0 0 0 1 6 12 13 11 11 9 8 7 6 7 7 7 6 6 4 3 3 3 3 3 2 1 0 0 0 0
0 0 0 0 0 0 0 0 0 0 0 0 0 0 0 0 0 0 0 0 0 0 1 6 12 13 11 10 10 9 7 7 7 7 7 6 6 4 3 3 3 3 3 3 1 1 0 0 0
0 0 0 0 0 0 0 0 0 0 0 0 0 0 0 0 0 0 1 1 2 1 1 5 11 13 11 10 9 9 8 7 6 6 7 7 6 5 4 3 3 3 3 3 2 1 0 0 0
0 0 0 0 0 0 0 0 0 0 0 0 0 0 0 0 0 1 2 3 3 1 2 6 10 11 10 9 9 9 9 8 6 5 6 7 5 4 3 3 3 3 3 3 3 1 0 0 0
0 0 0 0 0 0 0 0 0 0 0 0 0 0 0 0 1 2 3 3 2 2 4 6 9 10 9 8 8 9 9 7 4 4 4 4 2 2 3 3 3 3 3 3 3 1 0 0 0
0 0 0 0 0 0 0 0 0 0 0 0 0 0 0 0 1 2 3 3 3 4 5 7 8 8 7 7 7 7 7 5 2 1 2 1 0 1 2 3 3 3 3 3 2 2 1 0 0
0 0 0 0 0 0 0 0 0 0 0 0 0 0 0 0 1 3 4 3 3 4 6 7 7 6 5 4 5 5 5 4 2 1 1 0 0 1 3 3 3 4 3 2 1 2 2 1 0
0 0 0 0 0 0 0 0 0 0 0 0 0 0 0 0 1 3 5 5 4 5 7 6 5 4 2 1 1 2 3 3 2 1 0 0 0 1 3 3 2 3 2 1 1 3 2 1 0
0 0 0 0 0 0 0 0 0 0 0 0 0 0 0 1 2 4 6 6 4 5 7 6 3 1 1 1 1 0 1 2 1 1 0 0 0 1 3 2 1 1 1 2 3 3 2 1 0
0 0 0 0 0 0 0 0 0 0 0 0 0 0 1 2 3 4 5 5 3 3 5 4 1 0 0 1 2 1 1 1 1 0 0 0 0 0 1 0 0 1 1 2 2 2 1 0 0
0 0 0 0 0 0 0 0 0 0 0 0 0 0 1 2 3 4 4 4 2 2 3 2 1 0 0 1 2 2 2 1 0 0 0 0 0 0 0 0 0 0 0 1 1 1 0 0 0
0 0 0 0 0 0 0 0 0 0 0 0 0 0 1 2 3 4 4 5 4 2 2 1 0 0 0 0 1 2 2 1 0 0 0 0 0 0 0 0 0 0 0 0 0 0 0 0 0
0 0 0 0 0 0 0 0 0 0 0 0 0 0 0 1 3 4 4 5 5 4 3 1 0 0 0 0 1 1 1 1 0 0 0 0 0 0 0 0 0 0 0 0 0 0 0 0 0
0 0 0 0 0 0 0 0 0 0 0 0 0 0 0 1 2 3 3 4 5 4 3 2 1 0 0 0 0 0 0 0 0 0 0 0 0 0 0 0 0 0 0 0 0 0 0 0 0
0 0 0 0 0 0 0 0 0 0 0 0 0 0 0 1 2 3 3 3 3 4 3 2 1 0 0 0 0 0 0 0 0 1 1 0 0 0 0 0 0 0 0 0 0 0 0 0 0
0 0 0 0 0 0 0 0 0 0 0 0 0 0 0 0 1 2 3 3 3 3 3 2 1 1 0 0 0 0 0 0 0 1 2 1 0 0 0 0 0 0 0 0 0 0 0 0 0
0 0 0 0 0 0 0 0 0 0 0 0 0 0 0 0 0 1 2 3 3 3 3 2 2 1 0 0 0 0 0 0 0 1 2 1 0 0 0 0 0 0 0 0 0 0 0 0 0
0 0 0 0 0 0 0 0 0 0 0 0 0 0 0 0 0 0 1 2 2 2 2 3 2 1 0 0 0 0 0 0 0 0 1 1 0 0 0 0 0 0 0 0 0 0 0 0 0
0 0 0 0 0 0 0 0 0 0 0 0 0 0 0 0 0 0 0 1 1 1 1 2 3 2 0 0 0 0 0 0 0 0 0 0 0 0 0 0 0 0 0 0 0 0 0 0 0
0 0 0 0 0 0 0 0 0 0 0 0 0 0 0 0 0 0 0 0 0 0 0 1 2 1 0 0 0 0 0 0 0 0 0 0 0 0 0 0 0 0 0 0 0 0 0 0 0
0 0 0 0 0 0 0 0 0 0 0 0 0 0 0 0 0 0 0 0 0 0 0 0 0 0 0 0 0 0 0 0 0 0 0 0 0 0 0 0 0 0 0 0 0 0 0 0 0
0 0 0 0 0 0 0 0 0 0 0 0 0 0 0 0 0 0 0 0 0 0 0 0 0 0 0 0 0 0 0 0 0 0 0 0 0 0 0 0 0 0 0 0 0 0 0 0 0
0 0 0 0 0 0 0 0 0 0 0 0 0 0 0 0 0 0 0 0 0 0 0 0 0 0 0 0 0 0 0 0 0 0 0 0 0 0 0 0 0 0 0 0 0 0 0 0 0
0 0 0 0 0 0 0 0 0 0 0 0 0 0 0 0 0 0 0 0 0 0 0 1 0 0 0 0 0 0 0 0 0 0 0 0 0 0 0 0 0 0 0 0 0 0 0 0 0
0 0 0 0 0 0 0 0 0 0 0 0 0 0 0 0 0 0 0 0 0 0 0 0 0 0 0 0 0 0 0 0 0 0 0 0 0 0 0 0 0 0 0 0 0 0 0 0 0
0 0 0 0 0 0 0 0 0 0 0 0 0 0 0 0 0 0 0 0 0 0 0 0 0 0 0 0 0 0 0 0 0 0 0 0 0 0 0 0 0 0 0 0 0 0 0 0 0
0 0 0 0 0 0 0 0 0 0 0 0 0 0 0 0 0 0 0 0 0 0 0 0 0 0 0 0 0 0 0 0 0 0 0 0 0 0 0 0 0 0 0 0 0 0 0 0 0
0 0 0 0 0 0 0 0 0 0 0 0 0 0 0 0 0 0 0 0 0 0 0 0 0 0 0 0 0 0 0 0 0 0 0 0 0 0 0 0 0 0 0 0 0 0 0 0 0
0 0 0 0 0 0 0 0 0 0 0 0 0 0 0 0 0 0 0 0 0 0 0 0 0 0 0 0 0 0 0 0 0 0 0 0 0 0 0 0 0 0 0 0 0 0 0 0 0
0 0 0 0 0 0 0 0 0 0 0 0 0 0 0 0 0 0 0 0 0 0 0 0 0 0 0 0 0 0 0 0 0 0 0 0 0 0 0 0 0 0 0 0 0 0 0 0 0
Wind_Speed
6 4 2 4 5 3 3 4 2 0 0 0 2 4 6 4 3 3 1 2 4 4 4 5 7 8 9 9 9 9 9 9 10 10 10 11 11 11 11 11 11 11 11 12 13 13 13 13 13
3 2 4 5 4 2 4 4 3 3 3 2 3 3 4 3 2 3 1 1 6 5 3 4 7 9 9 9 9 9 9 9 9 9 9 10 10 10 11 11 11 11 11 12 12 12 13 13 13
3 1 4 4 3 5 5 3 5 2 0 2 2 3 3 2 2 2 1 4 6 5 3 4 8 8 9 9 9 9 8 9 9 9 9 9 9 10 10 11 11 11 11 11 12 12 12 12 12
2 4 4 3 5 5 5 3 3 1 1 2 3 3 2 2 1 2 4 6 6 5 3 4 8 8 8 8 8 9 9 8 8 9 9 9 9 10 11 11 10 10 11 11 11 11 11 11 12
4 4 2 2 5 4 2 2 1 0 0 1 3 3 1 3 2 4 6 7 7 5 4 4 8 8 8 8 8 8 8 8 8 9 9 9 9 9 10 10 10 10 10 11 11 11 11 11 11
3 3 3 4 5 3 2 2 1 1 1 0 2 3 1 1 3 4 5 5 6 5 4 4 7 8 8 8 8 8 8 8 8 8 8 9 9 9 9 9 9 10 10 10 10 10 11 11 12
4 3 4 5 4 3 3 0 1 2 1 1 2 4 2 0 1 3 5 5 5 5 5 4 4 5 7 8 8 8 8 8 9 8 8 8 8 8 8 8 8 9 10 9 9 10 11 11 11
4 3 2 3 4 4 1 1 0 1 1 1 2 5 4 3 3 4 5 5 5 5 4 4 4 4 4 4 7 8 8 8 9 8 8 7 7 7 8 7 8 8 9 9 9 10 11 11 11
3 3 4 5 5 4 1 1 1 1 2 2 2 1 2 5 5 6 5 4 4 4 3 3 4 4 3 3 5 6 6 7 7 6 7 6 4 4 4 6 7 8 8 9 9 10 10 10 10
3 3 6 3 2 3 1 0 1 1 1 1 2 3 4 5 6 6 5 4 4 3 3 3 4 4 3 3 3 3 3 4 4 4 4 3 3 3 4 6 8 8 8 8 8 9 8 6 4
2 4 2 2 2 1 0 1 0 2 2 3 3 2 3 4 4 5 4 4 4 3 3 3 3 4 4 3 2 2 2 3 3 4 4 3 3 3 3 2 4 4 5 4 5 5 3 3 3
1 2 1 1 2 1 1 0 1 1 4 3 3 5 4 4 4 5 5 4 3 3 3 3 3 3 3 3 2 3 2 2 2 3 4 3 2 2 2 2 2 2 2 2 3 2 3 4 4
2 2 2 1 2 1 1 1 0 3 3 0 3 4 5 4 4 4 4 3 3 3 3 3 3 3 3 3 2 3 2 2 2 3 3 3 3 2 2 2 2 2 2 2 2 2 3 3 4
1 1 2 3 2 2 1 3 1 5 1 1 3 4 4 4 4 2 2 3 3 4 4 4 3 3 3 3 3 2 2 2 2 2 3 3 3 2 2 2 2 2 2 2 2 2 3 2 3
1 1 4 3 2 1 1 4 4 4 1 1 2 3 4 4 3 3 4 4 4 3 4 4 4 3 3 3 3 2 2 2 2 2 3 3 3 3 2 2 2 2 2 2 2 3 2 3 3
1 1 3 3 2 2 2 7 4 2 2 2 2 2 2 3 3 3 3 3 3 3 3 4 3 3 3 3 3 2 2 2 2 2 2 3 3 3 2 2 2 2 2 2 2 2 3 3 2
2 1 4 4 2 2 3 7 4 3 3 3 3 3 2 1 1 1 2 3 3 4 4 4 4 3 3 3 2 2 2 2 2 2 2 2 3 2 2 2 2 2 2 2 3 2 2 3 3
3 3 4 5 2 2 4 7 6 3 3 4 4 3 3 2 2 1 1 2 2 3 4 3 3 3 3 3 2 2 2 2 2 2 2 3 3 3 2 2 2 2 3 2 3 3 2 2 3
3 3 5 5 3 2 5 8 8 5 4 4 4 4 4 3 1 1 1 1 2 2 3 3 3 3 3 3 3 3 2 2 2 2 3 3 3 3 2 2 2 2 3 3 3 3 3 2 3
2 4 5 5 3 3 5 9 8 6 6 7 7 6 5 3 1 1 1 2 1 2 2 3 3 3 3 3 3 2 2 2 2 2 2 2 3 3 3 3 3 2 3 3 3 4 3 1 1
3 4 5 5 5 3 3 7 6 5 4 4 5 5 4 5 4 3 2 1 1 1 2 3 3 3 3 3 2 2 2 1 1 2 2 2 3 3 3 3 3 3 3 4 4 4 4 3 1
5 4 4 4 2 4 1 6 8 4 3 4 5 4 4 4 3 3 3 2 2 2 2 3 3 2 2 3 4 5 4 3 3 3 2 2 2 3 3 3 3 3 3 4 4 3 3 4 2
5 3 3 3 3 4 3 4 8 2 5 5 5 6 5 4 4 3 3 3 2 2 2 3 2 2 2 3 4 4 3 2 2 2 2 2 2 2 3 3 3 3 3 3 4 3 3 3 3
2 2 2 2 1 4 6 5 7 4 6 4 4 4 5 4 4 3 2 1 0 1 0 1 2 2 2 3 3 4 4 3 3 3 3 2 1 2 2 3 3 3 3 3 3 4 4 3 3
3 3 3 4 2 6 2 3 9 6 5 4 5 4 4 3 3 3 2 2 1 1 1 1 2 2 2 3 3 4 4 5 5 5 4 4 2 2 3 3 4 3 3 3 3 3 3 3 4
2 4 4 4 5 5 2 6 7 4 3 2 2 2 1 2 2 3 3 2 2 2 1 1 2 2 3 3 3 3 4 3 3 4 3 4 3 3 3 3 4 4 4 3 3 3 3 3 3
1 2 2 2 1 3 6 6 7 2 3 3 2 1 1 2 2 2 1 1 1 1 2 2 2 2 3 4 3 3 3 3 4 4 3 3 3 3 3 3 3 3 4 4 4 2 4 3 3
2 3 2 2 2 4 6 5 5 4 4 3 3 3 2 2 1 1 1 1 1 1 1 1 1 2 3 3 3 3 3 4 4 4 4 4 3 3 3 4 3 3 3 3 4 3 3 4 3
1 2 2 2 3 3 5 7 4 4 3 3 4 3 2 2 2 1 1 1 1 1 1 1 1 1 2 2 2 3 3 3 3 4 4 4 4 4 4 4 4 4 4 4 4 4 4 4 4
3 4 5 3 4 3 3 9 3 2 2 2 3 3 2 2 2 2 1 1 1 2 2 2 1 1 2 2 2 2 3 3 3 4 4 4 4 4 5 4 4 4 4 4 5 5 4 5 5
Wind_Direction
326 342 59 59 61 61 234 248 226 252 151 83 67 95 112 113 126 149 152 130 119 136 146 148 135 124 120 114 114 109 104 101 99 99 102 103 100 98 97 97 95 92 90 90 88 87 85 84 85
337 2 56 65 102 173 248 241 206 224 199 128 53 61 78 82 69 99 83 121 124 125 122 135 130 124 120 115 111 112 109 106 102 100 100 104 104 102 100 99 97 95 93 91 89 87 87 87 87
329 56 83 87 149 192 215 219 204 222 142 109 75 43 87 108 112 133 150 136 119 112 104 123 122 122 120 117 113 110 110 108 104 102 102 102 106 107 103 100 97 95 94 92 91 89 88 89 90
60 52 60 103 216 223 213 216 199 165 38 58 104 66 52 19 146 141 129 126 118 109 99 117 115 114 116 119 117 112 107 106 105 104 104 101 103 107 104 101 99 98 96 94 93 91 91 91 91
62 85 95 220 233 238 229 248 216 161 159 55 102 105 57 351 51 96 114 121 121 111 98 111 111 112 110 111 114 111 108 104 103 105 103 101 100 105 106 103 103 102 100 98 96 94 92 92 93
67 84 137 217 232 238 242 242 204 148 220 17 101 119 143 3 89 103 110 110 117 115 106 106 112 108 106 104 101 103 105 104 98 103 101 98 98 98 103 105 105 107 105 102 99 98 94 93 94
114 124 187 204 221 236 246 266 162 164 147 256 146 129 154 212 111 106 105 103 105 106 102 96 99 102 102 97 92 89 90 98 96 90 89 87 90 93 99 101 103 107 107 104 102 99 97 94 94
131 120 199 217 206 226 224 93 109 131 195 341 87 143 183 200 137 104 96 92 93 97 99 97 95 89 87 91 91 87 85 89 94 88 79 74 81 86 89 92 99 101 103 102 100 99 99 95 91
97 101 217 222 202 209 184 89 354 50 91 38 39 124 169 135 120 109 99 82 87 99 100 106 104 97 92 90 93 91 87 84 85 82 78 71 62 75 82 81 91 94 97 96 96 98 96 91 88
99 183 224 231 211 190 181 147 194 82 33 8 23 32 83 119 128 129 132 133 133 140 131 118 118 112 103 98 92 87 76 77 74 75 74 70 59 61 75 79 81 84 85 89 89 89 86 80 79
145 202 220 274 286 189 240 317 352 149 239 223 206 173 126 121 133 141 150 157 165 161 139 127 128 122 116 112 105 94 83 79 75 76 73 73 65 60 60 71 72 71 74 72 76 73 67 74 81
154 272 250 281 324 342 304 15 22 239 249 239 193 162 151 153 168 170 174 173 157 145 150 138 134 127 127 126 117 105 100 97 92 85 82 83 78 70 72 70 70 64 59 70 71 80 78 77 80
222 265 287 313 8 349 34 328 210 279 279 292 121 141 161 175 186 183 182 176 163 153 158 150 139 136 136 128 121 112 109 115 113 103 95 94 94 101 99 86 78 71 64 73 79 85 90 85 80
195 246 290 293 289 284 246 287 258 263 272 124 133 164 175 186 191 168 169 190 187 174 172 160 143 143 140 133 130 131 129 126 119 110 110 109 103 109 118 106 95 85 76 76 92 96 97 88 89
122 337 318 291 245 236 123 297 254 249 168 165 186 194 190 197 191 185 181 190 191 182 172 162 152 147 146 144 140 135 133 130 130 132 124 115 112 112 115 117 108 101 96 90 88 83 88 85 80
49 27 291 290 228 207 147 259 271 238 164 205 222 211 198 214 203 195 179 177 176 167 167 163 152 152 154 150 147 142 139 139 142 142 130 119 115 112 116 120 123 112 106 101 98 92 95 85 80
14 256 254 282 232 183 188 255 266 232 187 213 229 220 214 208 208 201 176 172 177 173 167 167 164 165 168 158 143 143 146 148 147 139 130 129 125 118 128 124 124 120 111 105 106 97 109 110 99
241 244 257 257 262 214 229 256 268 240 213 220 220 222 221 213 219 180 173 169 170 165 156 161 168 167 166 155 134 126 128 137 139 145 140 136 134 127 128 130 119 125 119 108 109 114 97 118 120
225 235 263 269 270 250 245 264 270 249 226 228 226 221 227 230 220 160 143 139 134 139 150 163 165 171 160 158 159 156 167 159 150 154 148 143 143 140 136 135 134 135 135 135 129 119 115 103 112
232 255 273 286 281 255 258 270 271 245 227 218 217 219 217 209 191 156 117 110 132 164 173 178 182 176 174 174 176 168 164 164 159 151 149 149 150 149 152 152 163 155 144 134 132 120 125 134 124
264 231 241 263 305 312 294 288 276 270 243 233 225 222 212 196 199 192 185 179 158 183 198 196 197 188 184 172 151 134 122 115 136 161 164 171 166 161 163 171 170 167 164 160 159 151 143 157 195
262 247 239 256 295 283 236 281 280 268 263 244 232 223 222 211 198 192 191 190 204 224 220 199 191 183 183 172 165 168 172 180 193 186 181 186 169 156 158 167 175 175 174 170 172 164 157 151 163
245 265 246 244 239 281 262 240 279 286 262 251 233 226 223 218 200 195 198 202 212 214 220 207 188 181 182 178 175 177 183 184 176 169 169 179 174 165 170 167 170 175 180 183 176 173 168 165 168
257 6 358 34 87 263 241 215 275 246 239 254 247 231 221 217 207 198 189 163 215 231 223 215 185 192 192 182 178 178 182 180 176 183 186 189 188 184 183 176 175 180 183 188 190 184 181 183 178
47 71 12 350 332 255 251 218 255 256 249 228 233 230 218 202 187 182 184 192 208 242 238 209 196 203 199 190 187 188 191 187 189 196 195 194 193 210 205 192 188 188 192 192 186 186 187 189 184
232 150 173 221 240 279 297 237 257 267 283 259 224 218 207 200 194 193 197 195 204 233 240 220 210 222 206 198 201 196 191 190 193 197 196 200 202 209 212 201 196 195 192 193 186 188 192 186 187
167 199 192 166 252 273 269 282 298 290 336 345 334 345 268 227 206 193 195 192 206 242 248 232 224 227 218 205 205 206 196 192 195 196 193 201 203 204 207 211 204 201 192 193 191 196 197 186 190
176 162 112 151 221 269 284 273 261 269 278 304 307 291 277 259 229 207 222 264 283 266 280 283 229 227 229 218 209 209 207 206 198 193 198 202 202 200 201 212 208 202 193 191 192 203 202 188 195
157 161 168 179 188 200 268 268 236 231 243 253 268 277 264 258 246 239 272 312 313 316 328 314 281 257 245 236 225 218 214 210 198 197 201 204 207 203 203 209 208 201 199 192 191 201 202 197 199
202 194 170 190 241 215 239 268 272 250 274 260 274 296 286 268 272 278 303 332 322 310 314 302 283 272 259 247 233 231 224 209 206 208 208 204 208 210 209 207 206 207 205 197 198 201 208 203 203